User: anonymous   Login
Location: Unspecified
(0.0000°N, 0.0000°E)
Time: 23:57:31
(UTC+00:00)
Language:

Alouette 1 - Orbit

View from above orbital plane
View from above orbital plane
View from above satellite
View from above satellite

Ground track
Ground track

The orbit data is extracted from the following two-line orbital elements,

1 00424U 62049A   22269.41903841  .00000074  00000-0  74941-4 0  9992
2 00424  80.4670 161.5287 0023124 142.9284 217.3464 13.69221409995208
Epoch (UTC): 26 September 2022 10:03:24
Eccentricity: 0.0023124
inclination: 80.4670°
perigee height: 985 km
apogee height: 1019 km
right ascension of ascending node: 161.5287°
argument of perigee: 142.9284°
revolutions per day: 13.69221409
mean anomaly at epoch: 217.3464°
orbit number at epoch: 99520

The dashed part of the orbit path shows where the satellite is in the earth's shadow,  

DLR